User: anonymous   Login
Location: Northam
(31.6525°S, 116.6655°E)
Time: 10:24:37
(UTC+08:00)
Language:

N. Korean satellite - Orbit

View from above orbital plane
View from above orbital plane
View from above satellite
View from above satellite

Ground track
Ground track

The orbit data is extracted from the following two-line orbital elements,

1 39026U 12072A   21337.52699702  .00005000  00000-0  16331-3 0  9990
2 39026  97.2564 326.5326 0035550 138.4479 221.9476 15.31583551498892
Epoch (UTC): 03 December 2021 12:38:52
Eccentricity: 0.0035550
inclination: 97.2564°
perigee height: 447 km
apogee height: 495 km
right ascension of ascending node: 326.5326°
argument of perigee: 138.4479°
revolutions per day: 15.31583551
mean anomaly at epoch: 221.9476°
orbit number at epoch: 49889

The dashed part of the orbit path shows where the satellite is in the earth's shadow,  

DLR